Time,TemperatureF,DewpointF,PressureIn,WindDirection,WindDirectionDegrees,WindSpeedMPH,WindSpeedGustMPH,Humidity,HourlyPrecipIn,Conditions,Clouds,dailyrainin,SoftwareType,DateUTC
2017-07-24 00:01:00,69.0,67.8,29.84,SSE,157,0.0,0.0,96,0.00,,---,0.00,VWS V14.01,2017-07-24 04:01:00,
2017-07-24 00:07:00,69.0,67.8,29.86,SSE,157,2.0,2.0,96,0.00,,---,0.00,VWS V14.01,2017-07-24 04:07:00,
2017-07-24 00:12:00,69.0,68.7,29.86,SSE,157,2.0,4.0,99,0.00,,---,0.00,VWS V14.01,2017-07-24 04:12:00,
2017-07-24 00:17:00,69.0,68.4,29.86,SSE,157,2.0,3.0,98,0.00,,---,0.00,VWS V14.01,2017-07-24 04:17:00,
2017-07-24 00:22:00,69.0,68.4,29.86,SSE,157,0.0,2.0,98,0.00,,---,0.00,VWS V14.01,2017-07-24 04:22:00,
2017-07-24 00:27:00,69.0,68.7,29.86,SSE,157,1.0,2.0,99,0.00,,---,0.00,VWS V14.01,2017-07-24 04:27:00,
2017-07-24 00:32:00,69.0,68.7,29.86,SSE,157,3.0,4.0,99,0.00,,---,0.00,VWS V14.01,2017-07-24 04:32:00,
2017-07-24 00:37:00,69.0,68.7,29.85,SSE,157,2.0,3.0,99,0.00,,---,0.00,VWS V14.01,2017-07-24 04:37:00,
2017-07-24 00:43:00,69.0,68.7,29.85,SSE,157,1.0,3.0,99,0.00,,---,0.00,VWS V14.01,2017-07-24 04:43:00,
2017-07-24 00:48:00,69.0,68.7,29.86,SSE,157,2.0,3.0,99,0.00,,---,0.00,VWS V14.01,2017-07-24 04:48:00,
2017-07-24 00:53:00,69.0,68.7,29.86,SSW,202,1.0,4.0,99,0.00,,---,0.00,VWS V14.01,2017-07-24 04:53:00,
2017-07-24 00:58:00,69.0,68.7,29.87,SSW,202,1.0,3.0,99,0.00,,---,0.00,VWS V14.01,2017-07-24 04:58:00,
2017-07-24 01:03:00,69.0,68.7,29.87,South,180,2.0,3.0,99,0.00,,---,0.00,VWS V14.01,2017-07-24 05:03:00,
2017-07-24 01:08:00,69.0,68.7,29.86,South,180,0.0,2.0,99,0.00,,---,0.00,VWS V14.01,2017-07-24 05:08:00,
2017-07-24 01:13:00,69.0,68.7,29.86,South,180,2.0,3.0,99,0.00,,---,0.00,VWS V14.01,2017-07-24 05:13:00,
2017-07-24 01:18:00,69.0,68.7,29.86,South,180,2.0,4.0,99,0.00,,---,0.00,VWS V14.01,2017-07-24 05:18:00,
2017-07-24 01:23:00,69.0,68.7,29.86,South,180,2.0,3.0,99,0.00,,---,0.00,VWS V14.01,2017-07-24 05:23:00,
2017-07-24 01:28:00,69.0,68.7,29.86,South,180,2.0,3.0,99,0.00,,---,0.00,VWS V14.01,2017-07-24 05:28:00,
2017-07-24 01:31:00,69.0,68.7,29.86,South,180,2.0,3.0,99,0.00,,---,0.00,VWS V14.01,2017-07-24 05:31:00,
2017-07-24 01:36:00,69.0,68.7,29.86,South,180,1.0,3.0,99,0.00,,---,0.00,VWS V14.01,2017-07-24 05:36:00,
2017-07-24 01:42:00,69.0,68.7,29.86,South,180,2.0,2.0,99,0.00,,---,0.00,VWS V14.01,2017-07-24 05:42:00,
2017-07-24 01:47:00,69.0,68.7,29.85,South,180,2.0,3.0,99,0.00,,---,0.00,VWS V14.01,2017-07-24 05:47:00,
2017-07-24 01:52:00,69.0,68.7,29.85,South,180,0.0,4.0,99,0.00,,---,0.00,VWS V14.01,2017-07-24 05:52:00,
2017-07-24 01:57:00,69.0,68.7,29.85,South,180,0.0,1.0,99,0.00,,---,0.00,VWS V14.01,2017-07-24 05:57:00,
2017-07-24 02:02:00,68.0,67.7,29.85,South,180,1.0,3.0,99,0.00,,---,0.00,VWS V14.01,2017-07-24 06:02:00,
2017-07-24 02:07:00,69.0,68.7,29.85,South,180,2.0,5.0,99,0.00,,---,0.00,VWS V14.01,2017-07-24 06:07:00,
2017-07-24 02:13:00,69.0,68.7,29.85,SSE,157,2.0,5.0,99,0.00,,---,0.00,VWS V14.01,2017-07-24 06:13:00,
2017-07-24 02:18:00,69.0,68.7,29.85,SSE,157,1.0,5.0,99,0.00,,---,0.00,VWS V14.01,2017-07-24 06:18:00,
2017-07-24 02:23:00,69.0,68.7,29.85,SSE,157,0.0,3.0,99,0.00,,---,0.00,VWS V14.01,2017-07-24 06:23:00,
2017-07-24 02:28:00,69.0,68.7,29.85,SSE,157,2.0,3.0,99,0.00,,---,0.00,VWS V14.01,2017-07-24 06:28:00,
2017-07-24 02:33:00,69.0,68.7,29.85,SSE,157,1.0,4.0,99,0.00,,---,0.00,VWS V14.01,2017-07-24 06:33:00,
2017-07-24 02:38:00,69.0,68.7,29.85,SSE,157,0.0,3.0,99,0.00,,---,0.00,VWS V14.01,2017-07-24 06:38:00,
2017-07-24 02:43:00,69.0,68.7,29.85,SSE,157,0.0,0.0,99,0.00,,---,0.00,VWS V14.01,2017-07-24 06:43:00,
2017-07-24 02:48:00,68.0,67.7,29.85,SSE,157,0.0,4.0,99,0.00,,---,0.00,VWS V14.01,2017-07-24 06:48:00,
2017-07-24 02:53:00,68.0,67.7,29.85,SSE,157,0.0,3.0,99,0.00,,---,0.00,VWS V14.01,2017-07-24 06:53:00,
2017-07-24 02:58:00,68.0,67.7,29.85,SSE,157,0.0,0.0,99,0.00,,---,0.00,VWS V14.01,2017-07-24 06:58:00,
2017-07-24 03:03:00,68.0,67.7,29.85,SSE,157,0.0,2.0,99,0.00,,---,0.00,VWS V14.01,2017-07-24 07:03:00,
2017-07-24 03:08:00,68.0,67.7,29.85,SSE,157,0.0,4.0,99,0.00,,---,0.00,VWS V14.01,2017-07-24 07:08:00,
2017-07-24 03:13:00,68.0,67.7,29.85,SSE,157,0.0,2.0,99,0.00,,---,0.00,VWS V14.01,2017-07-24 07:13:00,
2017-07-24 03:18:00,68.0,67.7,29.85,South,180,1.0,1.0,99,0.00,,---,0.00,VWS V14.01,2017-07-24 07:18:00,
2017-07-24 03:23:00,68.0,67.7,29.85,South,180,2.0,3.0,99,0.00,,---,0.00,VWS V14.01,2017-07-24 07:23:00,
2017-07-24 03:28:00,68.0,67.7,29.85,SSE,157,2.0,2.0,99,0.00,,---,0.00,VWS V14.01,2017-07-24 07:28:00,
2017-07-24 03:33:00,69.0,68.7,29.85,SSE,157,0.0,1.0,99,0.00,,---,0.00,VWS V14.01,2017-07-24 07:33:00,
2017-07-24 03:38:00,69.0,68.7,29.84,WSW,247,1.0,2.0,99,0.00,,---,0.00,VWS V14.01,2017-07-24 07:38:00,
2017-07-24 03:44:00,69.0,68.7,29.84,WSW,247,0.0,2.0,99,0.00,,---,0.00,VWS V14.01,2017-07-24 07:44:00,
2017-07-24 03:49:00,68.0,67.7,29.84,SSE,157,5.0,6.0,99,0.00,,---,0.00,VWS V14.01,2017-07-24 07:49:00,
2017-07-24 03:54:00,69.0,68.7,29.84,SSE,157,2.0,5.0,99,0.00,,---,0.00,VWS V14.01,2017-07-24 07:54:00,
2017-07-24 03:59:00,68.0,67.7,29.84,SSE,157,2.0,6.0,99,0.00,,---,0.00,VWS V14.01,2017-07-24 07:59:00,
2017-07-24 04:04:00,69.0,68.7,29.84,SSE,157,2.0,6.0,99,0.00,,---,0.00,VWS V14.01,2017-07-24 08:04:00,
2017-07-24 04:09:00,68.0,67.7,29.84,SSE,157,2.0,4.0,99,0.00,,---,0.00,VWS V14.01,2017-07-24 08:09:00,
2017-07-24 04:15:00,68.0,67.7,29.84,SW,225,2.0,4.0,99,0.00,,---,0.00,VWS V14.01,2017-07-24 08:15:00,
2017-07-24 04:20:00,68.0,67.7,29.84,SW,225,2.0,6.0,99,0.00,,---,0.00,VWS V14.01,2017-07-24 08:20:00,
2017-07-24 04:25:00,68.0,67.7,29.84,SSW,202,4.0,7.0,99,0.00,,---,0.00,VWS V14.01,2017-07-24 08:25:00,
2017-07-24 04:30:00,68.0,67.7,29.84,South,180,0.0,5.0,99,0.00,,---,0.00,VWS V14.01,2017-07-24 08:30:00,
2017-07-24 04:35:00,68.0,67.7,29.85,SSE,157,2.0,7.0,99,0.00,,---,0.00,VWS V14.01,2017-07-24 08:35:00,
2017-07-24 04:40:00,68.0,67.7,29.85,SW,225,2.0,7.0,99,0.00,,---,0.00,VWS V14.01,2017-07-24 08:40:00,
2017-07-24 04:45:00,68.0,67.7,29.85,South,180,2.0,8.0,99,0.00,,---,0.00,VWS V14.01,2017-07-24 08:45:00,
2017-07-24 04:51:00,68.0,67.7,29.85,South,180,2.0,7.0,99,0.00,,---,0.00,VWS V14.01,2017-07-24 08:51:00,
2017-07-24 04:56:00,68.0,67.7,29.84,SSW,202,1.0,5.0,99,0.00,,---,0.00,VWS V14.01,2017-07-24 08:56:00,
2017-07-24 05:01:00,68.0,67.7,29.84,South,180,2.0,5.0,99,0.00,,---,0.00,VWS V14.01,2017-07-24 09:01:00,
2017-07-24 05:06:00,68.0,67.7,29.84,SSE,157,0.0,6.0,99,0.00,,---,0.00,VWS V14.01,2017-07-24 09:06:00,
2017-07-24 05:11:00,68.0,67.7,29.84,South,180,3.0,6.0,99,0.00,,---,0.00,VWS V14.01,2017-07-24 09:11:00,
2017-07-24 05:16:00,68.0,67.7,29.84,South,180,0.0,3.0,99,0.00,,---,0.00,VWS V14.01,2017-07-24 09:16:00,
2017-07-24 05:22:00,68.0,67.7,29.84,SW,225,1.0,4.0,99,0.00,,---,0.00,VWS V14.01,2017-07-24 09:22:00,
2017-07-24 05:27:00,68.0,67.7,29.85,SW,225,0.0,4.0,99,0.00,,---,0.00,VWS V14.01,2017-07-24 09:27:00,
2017-07-24 05:32:00,68.0,67.7,29.85,South,180,3.0,3.0,99,0.00,,---,0.00,VWS V14.01,2017-07-24 09:32:00,
2017-07-24 05:37:00,68.0,67.7,29.86,West,270,3.0,4.0,99,0.00,,---,0.00,VWS V14.01,2017-07-24 09:37:00,
2017-07-24 05:42:00,68.0,67.7,29.86,West,270,0.0,4.0,99,0.00,,---,0.00,VWS V14.01,2017-07-24 09:42:00,
2017-07-24 05:47:00,68.0,67.7,29.86,WSW,247,0.0,0.0,99,0.00,,---,0.00,VWS V14.01,2017-07-24 09:47:00,
2017-07-24 05:52:00,68.0,67.7,29.86,SW,225,1.0,5.0,99,0.00,,---,0.00,VWS V14.01,2017-07-24 09:52:00,
2017-07-24 05:58:00,68.0,67.7,29.86,SSW,202,0.0,2.0,99,0.00,,---,0.00,VWS V14.01,2017-07-24 09:58:00,
2017-07-24 06:03:00,68.0,67.7,29.86,SSW,202,1.0,3.0,99,0.00,,---,0.00,VWS V14.01,2017-07-24 10:03:00,
2017-07-24 06:08:00,68.0,67.7,29.87,SSW,202,0.0,2.0,99,0.00,,---,0.00,VWS V14.01,2017-07-24 10:08:00,
2017-07-24 06:13:00,68.0,67.7,29.87,SSW,202,2.0,4.0,99,0.00,,---,0.00,VWS V14.01,2017-07-24 10:13:00,
2017-07-24 06:18:00,67.0,66.7,29.87,SSW,202,0.0,3.0,99,0.00,,---,0.00,VWS V14.01,2017-07-24 10:18:00,
2017-07-24 06:23:00,68.0,67.7,29.87,SSW,202,1.0,2.0,99,0.00,,---,0.00,VWS V14.01,2017-07-24 10:23:00,
2017-07-24 06:28:00,68.0,67.7,29.87,SW,225,2.0,6.0,99,0.00,,---,0.00,VWS V14.01,2017-07-24 10:28:00,
2017-07-24 06:33:00,68.0,67.7,29.87,SW,225,2.0,3.0,99,0.00,,---,0.00,VWS V14.01,2017-07-24 10:33:00,
2017-07-24 06:38:00,68.0,67.7,29.88,WSW,247,3.0,5.0,99,0.00,,---,0.00,VWS V14.01,2017-07-24 10:38:00,
2017-07-24 06:43:00,68.0,67.7,29.88,WSW,247,2.0,5.0,99,0.00,,---,0.00,VWS V14.01,2017-07-24 10:43:00,
2017-07-24 06:48:00,68.0,67.7,29.88,WSW,247,0.0,3.0,99,0.00,,---,0.00,VWS V14.01,2017-07-24 10:48:00,
2017-07-24 06:53:00,68.0,67.7,29.88,WSW,247,0.0,4.0,99,0.00,,---,0.00,VWS V14.01,2017-07-24 10:53:00,
2017-07-24 06:58:00,68.0,67.7,29.88,WSW,247,1.0,2.0,99,0.00,,---,0.00,VWS V14.01,2017-07-24 10:58:00,
2017-07-24 07:03:00,68.0,67.7,29.88,WSW,247,1.0,3.0,99,0.00,,---,0.00,VWS V14.01,2017-07-24 11:03:00,
2017-07-24 07:08:00,68.0,67.7,29.88,WSW,247,3.0,4.0,99,0.00,,---,0.00,VWS V14.01,2017-07-24 11:08:00,
2017-07-24 07:13:00,68.0,67.7,29.88,WSW,247,0.0,4.0,99,0.00,,---,0.00,VWS V14.01,2017-07-24 11:13:00,
2017-07-24 07:18:00,68.0,67.7,29.89,WSW,247,3.0,5.0,99,0.00,,---,0.00,VWS V14.01,2017-07-24 11:18:00,
2017-07-24 07:23:00,68.0,67.7,29.89,West,270,4.0,7.0,99,0.00,,---,0.00,VWS V14.01,2017-07-24 11:23:00,
2017-07-24 07:28:00,68.0,67.7,29.90,West,270,5.0,7.0,99,0.00,,---,0.00,VWS V14.01,2017-07-24 11:28:00,
2017-07-24 07:33:00,68.0,67.7,29.90,WNW,292,4.0,4.0,99,0.00,,---,0.00,VWS V14.01,2017-07-24 11:33:00,
2017-07-24 07:39:00,69.0,68.7,29.89,WNW,292,7.0,9.0,99,0.00,,---,0.00,VWS V14.01,2017-07-24 11:39:00,
2017-07-24 07:44:00,69.0,68.7,29.90,NW,315,7.0,7.0,99,0.00,,---,0.00,VWS V14.01,2017-07-24 11:44:00,
2017-07-24 07:49:00,69.0,68.7,29.90,WNW,292,7.0,7.0,99,0.00,,---,0.00,VWS V14.01,2017-07-24 11:49:00,
2017-07-24 07:54:00,69.0,68.7,29.90,WNW,292,6.0,8.0,99,0.00,,---,0.00,VWS V14.01,2017-07-24 11:54:00,
2017-07-24 07:59:00,69.0,68.7,29.90,WNW,292,4.0,5.0,99,0.00,,---,0.00,VWS V14.01,2017-07-24 11:59:00,
2017-07-24 08:04:00,69.0,68.7,29.90,WNW,292,3.0,6.0,99,0.00,,---,0.00,VWS V14.01,2017-07-24 12:04:00,
2017-07-24 08:10:00,69.0,68.7,29.90,NW,315,5.0,7.0,99,0.00,,---,0.00,VWS V14.01,2017-07-24 12:10:00,
2017-07-24 08:15:00,69.0,68.7,29.90,NNW,337,7.0,9.0,99,0.00,,---,0.00,VWS V14.01,2017-07-24 12:15:00,
2017-07-24 08:20:00,69.0,68.7,29.90,WNW,292,4.0,7.0,99,0.00,,---,0.00,VWS V14.01,2017-07-24 12:20:00,
2017-07-24 08:25:00,70.0,69.7,29.90,WNW,292,7.0,7.0,99,0.00,,---,0.00,VWS V14.01,2017-07-24 12:25:00,
2017-07-24 08:30:00,70.0,69.7,29.90,WNW,292,3.0,8.0,99,0.00,,---,0.00,VWS V14.01,2017-07-24 12:30:00,
2017-07-24 08:35:00,70.0,69.7,29.90,West,270,3.0,9.0,99,0.00,,---,0.00,VWS V14.01,2017-07-24 12:35:00,
2017-07-24 08:40:00,70.0,69.7,29.90,NW,315,6.0,9.0,99,0.00,,---,0.00,VWS V14.01,2017-07-24 12:40:00,
2017-07-24 08:46:00,70.0,69.7,29.90,WNW,292,6.0,10.0,99,0.00,,---,0.00,VWS V14.01,2017-07-24 12:46:00,
2017-07-24 08:51:00,70.0,69.7,29.90,WNW,292,2.0,7.0,99,0.00,,---,0.00,VWS V14.01,2017-07-24 12:51:00,
2017-07-24 08:56:00,71.0,70.7,29.90,WNW,292,5.0,10.0,99,0.00,,---,0.00,VWS V14.01,2017-07-24 12:56:00,
2017-07-24 09:01:00,71.0,70.7,29.90,NNW,337,6.0,9.0,99,0.00,,---,0.00,VWS V14.01,2017-07-24 13:01:00,
2017-07-24 09:06:00,72.0,71.7,29.90,NW,315,6.0,10.0,99,0.00,,---,0.00,VWS V14.01,2017-07-24 13:06:00,
2017-07-24 09:11:00,72.0,71.4,29.90,NW,315,5.0,8.0,98,0.00,,---,0.00,VWS V14.01,2017-07-24 13:11:00,
2017-07-24 09:17:00,72.0,71.1,29.91,NW,315,7.0,10.0,97,0.00,,---,0.00,VWS V14.01,2017-07-24 13:17:00,
2017-07-24 09:22:00,72.0,71.1,29.91,WNW,292,7.0,10.0,97,0.00,,---,0.00,VWS V14.01,2017-07-24 13:22:00,
2017-07-24 09:27:00,72.0,70.5,29.91,North,360,6.0,10.0,95,0.00,,---,0.00,VWS V14.01,2017-07-24 13:27:00,
2017-07-24 09:32:00,72.0,70.5,29.91,WNW,292,6.0,11.0,95,0.00,,---,0.00,VWS V14.01,2017-07-24 13:32:00,
2017-07-24 09:37:00,73.0,70.9,29.91,NW,315,6.0,9.0,93,0.00,,---,0.00,VWS V14.01,2017-07-24 13:37:00,
2017-07-24 09:42:00,72.0,69.6,29.91,NW,315,3.0,8.0,92,0.00,,---,0.00,VWS V14.01,2017-07-24 13:42:00,
2017-07-24 09:47:00,73.0,70.9,29.92,WNW,292,6.0,7.0,93,0.00,,---,0.00,VWS V14.01,2017-07-24 13:47:00,
2017-07-24 09:53:00,73.0,70.5,29.92,WNW,292,6.0,8.0,92,0.00,,---,0.00,VWS V14.01,2017-07-24 13:53:00,
2017-07-24 09:58:00,73.0,70.2,29.92,NW,315,6.0,9.0,91,0.00,,---,0.00,VWS V14.01,2017-07-24 13:58:00,
2017-07-24 10:03:00,73.0,70.5,29.92,NNW,337,5.0,7.0,92,0.00,,---,0.00,VWS V14.01,2017-07-24 14:03:00,
2017-07-24 10:08:00,73.0,69.9,29.92,WNW,292,4.0,7.0,90,0.00,,---,0.00,VWS V14.01,2017-07-24 14:08:00,
2017-07-24 10:13:00,74.0,70.9,29.92,NNW,337,3.0,6.0,90,0.00,,---,0.00,VWS V14.01,2017-07-24 14:13:00,
2017-07-24 10:18:00,74.0,70.6,29.92,NW,315,2.0,7.0,89,0.00,,---,0.00,VWS V14.01,2017-07-24 14:18:00,
2017-07-24 10:23:00,75.0,71.5,29.92,NNW,337,6.0,7.0,89,0.00,,---,0.00,VWS V14.01,2017-07-24 14:23:00,
2017-07-24 10:28:00,76.0,71.9,29.92,NNW,337,4.0,6.0,87,0.00,,---,0.00,VWS V14.01,2017-07-24 14:28:00,
2017-07-24 10:33:00,76.0,70.8,29.92,WNW,292,1.0,2.0,84,0.00,,---,0.00,VWS V14.01,2017-07-24 14:33:00,
2017-07-24 10:39:00,77.0,71.8,29.93,NNW,337,6.0,6.0,84,0.00,,---,0.00,VWS V14.01,2017-07-24 14:39:00,
2017-07-24 10:44:00,77.0,71.1,29.93,NNW,337,1.0,4.0,82,0.00,,---,0.00,VWS V14.01,2017-07-24 14:44:00,
2017-07-24 10:49:00,78.0,71.3,29.92,WNW,292,7.0,8.0,80,0.00,,---,0.00,VWS V14.01,2017-07-24 14:49:00,
2017-07-24 10:54:00,77.0,70.0,29.93,NNW,337,5.0,8.0,79,0.00,,---,0.00,VWS V14.01,2017-07-24 14:54:00,